Location: Boiro
(42.6475°N, 8.8834°W)
Time: 00:43:21
(UTC+01:00)

Tiros 1 despin weight - Pass Details

Date: 09 December 2021
Orbit: 592 x 641 km, 48.2° (Epoch: 23 January)

Event Time Altitude Azimuth Distance (km) Brightness Sun altitude
Rises 17:41:06 0° 295° (WNW) 2,829 ? 2.4°
Reaches altitude 10° 17:43:23 10° 295° (WNW) 1,923 ? 2.0°
Maximum altitude 17:47:47 87° 212° (SSW) 597 ? 1.4°
Drops below altitude 10° 17:52:12 10° 119° (ESE) 1,919 ? 0.7°
Sets 17:54:29 0° 119° (ESE) 2,822 ? 0.3°
